Weather in Ashikaga

Japan     36°20′06″N   139°27′07″E
temp.,
°C
wind,
m/s
gust,
m/s
humid.,
%
clouds,
%
prec.,
mm/h
press.,
hPa
HPBL,
m
12 april, mon
mon1200:00+14e2345100 0.1 10341231
03:00+13ese134858 0.1 1033318
06:00+12e125266 0.0 1034360
09:00+15sse234113 0.0 10341447
12:00+19sse44305 0.0 10312330
15:00+20s55265 0.0 10292332
18:00+17sse5535100 0.0 10291812
21:00+15sse5744100 0.0 10301200
13 april, tue
tue1300:00+14sse3746100 0.0 10291377
03:00+14se265065 0.0 1026638
06:00+14sse265799 0.0 1025966
09:00+16s4852100 0.1 10231341
12:00+17sse6852100 0.2 10181451
15:00+18s5649100 0.3 10161428
18:00+18ssw2450100 0.0 1015556
21:00+16sw2458100 0.0 1015392
14 april, wed
wed1400:00+16w125793 0.0 1012102
03:00+14sw2362100 0.0 1011107
06:00+14wnw1162100 0.0 101082
09:00+13nne1178100 1.8 1009250
12:00+14nne1285100 4.8 1007309
15:00+14w1376100 5.3 1006309
18:00+14wnw1470100 0.6 1008294
21:00+11w2461100 0.8 1012542
15 april, thu
thu1500:00+9w365269 0.0 1015524
03:00+7w24470 0.0 1018429
06:00+7se13440 0.0 1021610
09:00+11sse11300 0.0 10221111
12:00+15se22200 0.0 10211520
15:00+17se32180 0.0 10211870
18:00+15ese5524100 0.0 10221257
21:00+12ese5643100 0.0 10261161
16 april, fri
fri1600:00+11ese344430 0.0 10261158
03:00+12ese2348100 0.0 1026905
06:00+12se245198 0.0 1027860
09:00+14sse244282 0.0 10271513
12:00+18sse3333100 0.0 10252013
15:00+19sse543179 0.0 10231930
18:00+17sse4443100 0.0 10251566
21:00+15sse4551100 0.0 10271038